Time,TemperatureF,DewpointF,PressureIn,WindDirection,WindDirectionDegrees,WindSpeedMPH,WindSpeedGustMPH,Humidity,HourlyPrecipIn,Conditions,Clouds,dailyrainin,SoftwareType,DateUTC
2013-06-09 00:03:00,57.0,56.0,29.93,East,100,3.0,6.0,96,0.00,,,2.59,,2013-06-09 04:03:00,
2013-06-09 00:12:00,57.0,56.0,29.93,East,100,3.0,6.0,96,0.00,,,2.59,,2013-06-09 04:12:00,
2013-06-09 00:23:00,56.0,55.0,29.94,ESE,108,3.0,8.0,95,0.00,,,2.27,,2013-06-09 04:23:00,
2013-06-09 00:33:00,56.0,55.0,29.95,East,101,1.0,6.0,95,0.00,,,2.27,,2013-06-09 04:33:00,
2013-06-09 00:43:00,56.0,55.0,29.95,East,101,1.0,6.0,95,0.00,,,2.27,,2013-06-09 04:43:00,
2013-06-09 00:53:00,56.0,55.0,29.96,East,89,2.0,7.0,95,0.00,,,2.27,,2013-06-09 04:53:00,
2013-06-09 01:02:00,56.0,55.0,29.96,ESE,107,2.0,7.0,95,0.00,,,2.27,,2013-06-09 05:02:00,
2013-06-09 01:12:00,56.0,55.0,29.96,ESE,107,2.0,7.0,95,0.00,,,2.27,,2013-06-09 05:12:00,
2013-06-09 01:22:00,56.0,55.0,29.97,ESE,106,1.0,6.0,95,0.00,,,2.06,,2013-06-09 05:22:00,
2013-06-09 01:32:00,56.0,55.0,29.96,ESE,106,0.0,3.0,95,0.00,,,2.06,,2013-06-09 05:32:00,
2013-06-09 01:42:00,56.0,55.0,29.96,ESE,106,0.0,3.0,95,0.00,,,2.06,,2013-06-09 05:42:00,
2013-06-09 01:52:00,56.0,55.0,29.97,ESE,106,1.0,3.0,96,0.00,,,2.06,,2013-06-09 05:52:00,
2013-06-09 02:02:00,55.0,54.0,29.98,ESE,106,0.0,6.0,95,0.00,,,2.06,,2013-06-09 06:02:00,
2013-06-09 02:12:00,55.0,54.0,29.98,ESE,106,0.0,6.0,95,0.00,,,2.06,,2013-06-09 06:12:00,
2013-06-09 02:22:00,55.0,54.0,29.98,ESE,106,0.0,3.0,96,0.00,,,1.87,,2013-06-09 06:22:00,
2013-06-09 02:32:00,55.0,54.0,29.98,ESE,106,0.0,3.0,96,0.00,,,1.87,,2013-06-09 06:32:00,
2013-06-09 02:42:00,55.0,54.0,29.98,ESE,106,0.0,3.0,96,0.00,,,1.87,,2013-06-09 06:42:00,
2013-06-09 02:52:00,55.0,54.0,29.98,ESE,106,1.0,3.0,96,0.00,,,1.87,,2013-06-09 06:52:00,
2013-06-09 03:02:00,55.0,54.0,29.98,ESE,106,1.0,3.0,96,0.00,,,1.87,,2013-06-09 07:02:00,
2013-06-09 03:12:00,55.0,54.0,29.98,ESE,106,1.0,3.0,96,0.00,,,1.87,,2013-06-09 07:12:00,
2013-06-09 03:22:00,55.0,54.0,29.98,ESE,106,0.0,3.0,96,0.00,,,1.59,,2013-06-09 07:22:00,
2013-06-09 03:32:00,55.0,54.0,29.98,ESE,106,1.0,5.0,96,0.00,,,1.59,,2013-06-09 07:32:00,
2013-06-09 03:42:00,55.0,54.0,29.98,ESE,106,1.0,5.0,96,0.00,,,1.59,,2013-06-09 07:42:00,
2013-06-09 03:53:00,54.0,53.0,29.99,ESE,106,2.0,5.0,96,0.00,,,1.59,,2013-06-09 07:53:00,
2013-06-09 04:02:00,54.0,53.0,30.00,ESE,106,1.0,3.0,96,0.00,,,1.59,,2013-06-09 08:02:00,
2013-06-09 04:12:00,54.0,53.0,30.00,ESE,106,1.0,3.0,96,0.00,,,1.59,,2013-06-09 08:12:00,
2013-06-09 04:22:00,54.0,53.0,29.99,ESE,106,1.0,5.0,96,0.00,,,1.23,,2013-06-09 08:22:00,
2013-06-09 04:32:00,54.0,53.0,30.00,ESE,106,1.0,5.0,96,0.00,,,1.23,,2013-06-09 08:32:00,
2013-06-09 04:42:00,54.0,53.0,30.00,ESE,106,1.0,5.0,96,0.00,,,1.23,,2013-06-09 08:42:00,
2013-06-09 04:53:00,54.0,53.0,30.01,ESE,106,1.0,6.0,96,0.00,,,1.23,,2013-06-09 08:53:00,
2013-06-09 05:02:00,54.0,53.0,30.01,ESE,106,0.0,1.0,96,0.00,,,1.23,,2013-06-09 09:02:00,
2013-06-09 05:12:00,54.0,53.0,30.01,ESE,106,0.0,1.0,96,0.00,,,1.23,,2013-06-09 09:12:00,
2013-06-09 05:22:00,54.0,53.0,30.01,ESE,106,0.0,2.0,96,0.00,,,1.03,,2013-06-09 09:22:00,
2013-06-09 05:33:00,54.0,53.0,30.01,ESE,106,0.0,2.0,96,0.00,,,1.03,,2013-06-09 09:33:00,
2013-06-09 05:43:00,54.0,53.0,30.01,ESE,106,0.0,2.0,96,0.00,,,1.03,,2013-06-09 09:43:00,
2013-06-09 05:53:00,54.0,53.0,30.01,ESE,106,0.0,3.0,96,0.00,,,1.03,,2013-06-09 09:53:00,
2013-06-09 06:03:00,54.0,53.0,30.02,ESE,106,0.0,3.0,96,0.00,,,1.03,,2013-06-09 10:03:00,
2013-06-09 06:12:00,54.0,53.0,30.02,ESE,106,0.0,3.0,96,0.00,,,1.03,,2013-06-09 10:12:00,
2013-06-09 06:23:00,54.0,53.0,30.02,ESE,106,0.0,5.0,96,0.00,,,0.84,,2013-06-09 10:23:00,
2013-06-09 06:32:00,55.0,54.0,30.03,ESE,106,2.0,6.0,95,0.00,,,0.84,,2013-06-09 10:32:00,
2013-06-09 06:43:00,55.0,54.0,30.03,ESE,106,2.0,6.0,95,0.00,,,0.84,,2013-06-09 10:43:00,
2013-06-09 06:52:00,55.0,54.0,30.03,ESE,106,1.0,3.0,95,0.00,,,0.84,,2013-06-09 10:52:00,
2013-06-09 07:02:00,55.0,53.0,30.04,ESE,106,1.0,5.0,94,0.00,,,0.84,,2013-06-09 11:02:00,
2013-06-09 07:12:00,55.0,53.0,30.04,ESE,106,1.0,5.0,94,0.00,,,0.84,,2013-06-09 11:12:00,
2013-06-09 07:22:00,55.0,53.0,30.03,ESE,106,1.0,5.0,94,0.00,,,0.28,,2013-06-09 11:22:00,
2013-06-09 07:32:00,55.0,53.0,30.04,ESE,106,1.0,6.0,93,0.00,,,0.28,,2013-06-09 11:32:00,
2013-06-09 07:42:00,55.0,53.0,30.04,ESE,106,1.0,6.0,93,0.00,,,0.28,,2013-06-09 11:42:00,
2013-06-09 07:53:00,55.0,53.0,30.05,ESE,106,0.0,5.0,92,0.00,,,0.28,,2013-06-09 11:53:00,
2013-06-09 08:02:00,56.0,53.0,30.06,ESE,106,1.0,6.0,91,0.00,,,0.28,,2013-06-09 12:02:00,
2013-06-09 08:12:00,56.0,53.0,30.06,ESE,106,1.0,6.0,91,0.00,,,0.28,,2013-06-09 12:12:00,
2013-06-09 08:22:00,56.0,53.0,30.06,ESE,106,1.0,5.0,91,0.00,,,0.15,,2013-06-09 12:22:00,
2013-06-09 08:32:00,56.0,53.0,30.07,ESE,106,1.0,3.0,90,0.00,,,0.15,,2013-06-09 12:32:00,
2013-06-09 08:42:00,56.0,53.0,30.07,ESE,106,1.0,3.0,90,0.00,,,0.15,,2013-06-09 12:42:00,
2013-06-09 08:53:00,56.0,53.0,30.07,ESE,106,0.0,2.0,90,0.00,,,0.15,,2013-06-09 12:53:00,
2013-06-09 09:02:00,57.0,54.0,30.07,ESE,106,0.0,3.0,89,0.00,,,0.15,,2013-06-09 13:02:00,
2013-06-09 09:12:00,57.0,54.0,30.07,ESE,106,0.0,3.0,89,0.00,,,0.15,,2013-06-09 13:12:00,
2013-06-09 09:22:00,58.0,54.0,30.07,ESE,106,3.0,6.0,86,0.00,,,0.09,,2013-06-09 13:22:00,
2013-06-09 09:32:00,57.0,53.0,30.07,ESE,106,1.0,5.0,88,0.00,,,0.09,,2013-06-09 13:32:00,
2013-06-09 09:42:00,57.0,53.0,30.07,ESE,106,1.0,5.0,88,0.00,,,0.09,,2013-06-09 13:42:00,
2013-06-09 09:52:00,57.0,53.0,30.08,ESE,106,2.0,6.0,87,0.00,,,0.09,,2013-06-09 13:52:00,
2013-06-09 10:02:00,58.0,54.0,30.08,ESE,110,1.0,7.0,87,0.00,,,0.09,,2013-06-09 14:02:00,
2013-06-09 10:12:00,58.0,54.0,30.08,ESE,110,1.0,7.0,87,0.00,,,0.09,,2013-06-09 14:12:00,
2013-06-09 10:22:00,57.0,53.0,30.08,West,269,2.0,6.0,88,0.00,,,0.04,,2013-06-09 14:22:00,
2013-06-09 10:32:00,58.0,54.0,30.08,WNW,296,4.0,8.0,87,0.00,,,0.04,,2013-06-09 14:32:00,
2013-06-09 10:43:00,58.0,54.0,30.08,WNW,296,4.0,8.0,87,0.00,,,0.04,,2013-06-09 14:43:00,
2013-06-09 10:52:00,58.0,54.0,30.08,West,264,4.0,9.0,86,0.00,,,0.04,,2013-06-09 14:52:00,
2013-06-09 11:02:00,57.0,53.0,30.08,WNW,285,3.0,8.0,87,0.00,,,0.04,,2013-06-09 15:02:00,
2013-06-09 11:12:00,57.0,53.0,30.08,WNW,285,3.0,8.0,87,0.00,,,0.04,,2013-06-09 15:12:00,
2013-06-09 11:22:00,57.0,53.0,30.08,West,277,3.0,8.0,88,0.00,,,0.00,,2013-06-09 15:22:00,
2013-06-09 11:33:00,59.0,55.0,30.08,WSW,244,2.0,9.0,86,0.00,,,0.00,,2013-06-09 15:33:00,
2013-06-09 11:43:00,59.0,55.0,30.08,WSW,244,2.0,9.0,86,0.00,,,0.00,,2013-06-09 15:43:00,
2013-06-09 11:53:00,60.0,55.0,30.07,SW,224,3.0,9.0,83,0.00,,,0.00,,2013-06-09 15:53:00,
2013-06-09 12:03:00,61.0,55.0,30.07,West,269,3.0,7.0,82,0.00,,,0.00,,2013-06-09 16:03:00,
2013-06-09 12:13:00,61.0,55.0,30.07,West,269,3.0,7.0,82,0.00,,,0.00,,2013-06-09 16:13:00,
2013-06-09 12:23:00,59.0,54.0,30.07,WNW,283,4.0,9.0,83,0.00,,,0.00,,2013-06-09 16:23:00,
2013-06-09 12:33:00,58.0,53.0,30.08,WNW,285,3.0,10.0,84,0.00,,,0.00,,2013-06-09 16:33:00,
2013-06-09 12:42:00,58.0,53.0,30.08,WNW,285,3.0,10.0,84,0.00,,,0.00,,2013-06-09 16:42:00,
2013-06-09 12:53:00,59.0,54.0,30.08,West,260,3.0,9.0,84,0.00,,,0.00,,2013-06-09 16:53:00,
2013-06-09 13:03:00,60.0,55.0,30.06,SW,225,6.0,10.0,83,0.00,,,0.00,,2013-06-09 17:03:00,
2013-06-09 13:12:00,60.0,55.0,30.06,SW,225,6.0,10.0,83,0.00,,,0.00,,2013-06-09 17:12:00,
2013-06-09 13:22:00,62.0,57.0,30.06,SW,228,3.0,14.0,83,0.00,,,0.00,,2013-06-09 17:22:00,
2013-06-09 13:32:00,61.0,56.0,30.07,SW,232,4.0,12.0,84,0.00,,,0.00,,2013-06-09 17:32:00,
2013-06-09 13:42:00,61.0,56.0,30.07,SW,232,4.0,12.0,84,0.00,,,0.00,,2013-06-09 17:42:00,
2013-06-09 13:52:00,63.0,57.0,30.05,SW,221,4.0,11.0,81,0.00,,,0.00,,2013-06-09 17:52:00,
2013-06-09 14:02:00,62.0,56.0,30.05,WSW,239,7.0,14.0,82,0.00,,,0.00,,2013-06-09 18:02:00,
2013-06-09 14:12:00,62.0,56.0,30.05,WSW,239,7.0,14.0,82,0.00,,,0.00,,2013-06-09 18:12:00,
2013-06-09 14:22:00,61.0,57.0,30.04,SSW,206,8.0,15.0,86,0.00,,,0.00,,2013-06-09 18:22:00,
2013-06-09 14:32:00,61.0,57.0,30.04,WSW,241,9.0,15.0,86,0.00,,,0.00,,2013-06-09 18:32:00,
2013-06-09 14:42:00,61.0,57.0,30.04,WSW,241,9.0,15.0,86,0.00,,,0.00,,2013-06-09 18:42:00,
2013-06-09 14:52:00,62.0,57.0,30.04,WSW,241,9.0,16.0,83,0.00,,,0.00,,2013-06-09 18:52:00,
2013-06-09 15:02:00,63.0,58.0,30.04,WSW,252,8.0,16.0,83,0.00,,,0.00,,2013-06-09 19:02:00,
2013-06-09 15:12:00,63.0,58.0,30.04,WSW,252,8.0,16.0,83,0.00,,,0.00,,2013-06-09 19:12:00,
2013-06-09 15:22:00,64.0,57.0,30.04,WSW,242,6.0,13.0,78,0.00,,,0.00,,2013-06-09 19:22:00,
2013-06-09 15:32:00,64.0,57.0,30.04,SW,219,5.0,14.0,78,0.00,,,0.00,,2013-06-09 19:32:00,
2013-06-09 15:42:00,64.0,57.0,30.04,SW,219,5.0,14.0,78,0.00,,,0.00,,2013-06-09 19:42:00,
2013-06-09 15:52:00,63.0,56.0,30.04,SSW,213,7.0,16.0,79,0.00,,,0.00,,2013-06-09 19:52:00,
2013-06-09 16:02:00,62.0,55.0,30.04,WSW,237,8.0,14.0,78,0.00,,,0.00,,2013-06-09 20:02:00,
2013-06-09 16:12:00,62.0,55.0,30.04,WSW,237,8.0,14.0,78,0.00,,,0.00,,2013-06-09 20:12:00,
2013-06-09 16:22:00,65.0,58.0,30.05,SW,235,2.0,10.0,79,0.00,,,0.00,,2013-06-09 20:22:00,
2013-06-09 16:32:00,64.0,57.0,30.04,SW,235,7.0,14.0,79,0.00,,,0.00,,2013-06-09 20:32:00,
2013-06-09 16:42:00,64.0,57.0,30.04,SW,235,7.0,14.0,79,0.00,,,0.00,,2013-06-09 20:42:00,
2013-06-09 16:52:00,63.0,57.0,30.04,WSW,253,9.0,14.0,81,0.00,,,0.00,,2013-06-09 20:52:00,
2013-06-09 17:02:00,63.0,58.0,30.04,West,275,6.0,13.0,83,0.00,,,0.00,,2013-06-09 21:02:00,
2013-06-09 17:12:00,63.0,57.0,30.04,SW,220,4.0,13.0,82,0.00,,,0.00,,2013-06-09 21:12:00,
2013-06-09 17:22:00,63.0,57.0,30.04,SW,220,4.0,13.0,82,0.00,,,0.00,,2013-06-09 21:22:00,
2013-06-09 17:33:00,63.0,57.0,30.04,WSW,258,4.0,13.0,82,0.00,,,0.00,,2013-06-09 21:33:00,
2013-06-09 17:43:00,63.0,57.0,30.04,WSW,258,4.0,13.0,82,0.00,,,0.00,,2013-06-09 21:43:00,
2013-06-09 17:53:00,64.0,57.0,30.04,SSW,213,5.0,10.0,79,0.00,,,0.00,,2013-06-09 21:53:00,
2013-06-09 18:02:00,65.0,58.0,30.04,SW,231,5.0,11.0,78,0.00,,,0.00,,2013-06-09 22:02:00,
2013-06-09 18:13:00,64.0,58.0,30.04,SW,225,6.0,12.0,81,0.00,,,0.00,,2013-06-09 22:13:00,
2013-06-09 18:23:00,64.0,58.0,30.04,SW,225,6.0,12.0,81,0.00,,,0.00,,2013-06-09 22:23:00,
2013-06-09 18:33:00,63.0,58.0,30.04,SW,223,4.0,11.0,83,0.00,,,0.00,,2013-06-09 22:33:00,
2013-06-09 18:42:00,63.0,58.0,30.04,SW,223,4.0,11.0,83,0.00,,,0.00,,2013-06-09 22:42:00,
2013-06-09 18:52:00,61.0,57.0,30.04,SW,235,4.0,12.0,86,0.00,,,0.00,,2013-06-09 22:52:00,
2013-06-09 19:02:00,62.0,57.0,30.04,WSW,240,6.0,11.0,85,0.00,,,0.00,,2013-06-09 23:02:00,
2013-06-09 19:12:00,61.0,57.0,30.04,WSW,246,7.0,12.0,86,0.00,,,0.00,,2013-06-09 23:12:00,
2013-06-09 19:22:00,61.0,57.0,30.04,WSW,246,7.0,12.0,86,0.00,,,0.00,,2013-06-09 23:22:00,
2013-06-09 19:32:00,61.0,57.0,30.04,WSW,237,6.0,12.0,87,0.00,,,0.00,,2013-06-09 23:32:00,
2013-06-09 19:43:00,61.0,57.0,30.04,WSW,237,6.0,12.0,87,0.00,,,0.00,,2013-06-09 23:43:00,
2013-06-09 19:52:00,60.0,57.0,30.04,SW,217,7.0,14.0,89,0.00,,,0.00,,2013-06-09 23:52:00,
2013-06-09 20:02:00,59.0,56.0,30.04,SW,235,8.0,12.0,90,0.00,,,0.00,,2013-06-10 00:02:00,
2013-06-09 20:13:00,59.0,56.0,30.04,SW,235,8.0,12.0,90,0.00,,,0.00,,2013-06-10 00:13:00,
2013-06-09 20:22:00,59.0,56.0,30.04,WSW,240,7.0,12.0,91,0.00,,,0.00,,2013-06-10 00:22:00,
2013-06-09 20:32:00,58.0,56.0,30.04,WSW,246,6.0,14.0,92,0.00,,,0.00,,2013-06-10 00:32:00,
2013-06-09 20:42:00,58.0,56.0,30.04,WSW,246,6.0,14.0,92,0.00,,,0.00,,2013-06-10 00:42:00,
2013-06-09 20:52:00,57.0,55.0,30.05,WSW,240,6.0,10.0,93,0.00,,,0.00,,2013-06-10 00:52:00,
2013-06-09 21:02:00,57.0,55.0,30.06,WSW,241,2.0,12.0,94,0.00,,,0.00,,2013-06-10 01:02:00,
2013-06-09 21:12:00,57.0,55.0,30.06,WSW,241,2.0,12.0,94,0.00,,,0.00,,2013-06-10 01:12:00,
2013-06-09 21:22:00,57.0,55.0,30.06,SW,233,4.0,8.0,94,0.00,,,0.00,,2013-06-10 01:22:00,
2013-06-09 21:32:00,57.0,55.0,30.07,SW,227,1.0,5.0,94,0.00,,,0.00,,2013-06-10 01:32:00,
2013-06-09 21:43:00,57.0,55.0,30.07,SW,227,1.0,5.0,94,0.00,,,0.00,,2013-06-10 01:43:00,
2013-06-09 21:52:00,58.0,56.0,30.07,WSW,255,0.0,5.0,93,0.00,,,0.00,,2013-06-10 01:52:00,
2013-06-09 22:02:00,58.0,56.0,30.08,WSW,250,1.0,8.0,92,0.00,,,0.00,,2013-06-10 02:02:00,
2013-06-09 22:12:00,58.0,56.0,30.08,WSW,250,1.0,8.0,92,0.00,,,0.00,,2013-06-10 02:12:00,
2013-06-09 22:22:00,57.0,55.0,30.08,WSW,250,0.0,6.0,93,0.00,,,0.00,,2013-06-10 02:22:00,
2013-06-09 22:32:00,56.0,54.0,30.09,NNE,30,7.0,14.0,94,0.00,,,0.00,,2013-06-10 02:32:00,
2013-06-09 22:42:00,56.0,54.0,30.09,NNE,30,7.0,14.0,94,0.00,,,0.00,,2013-06-10 02:42:00,
2013-06-09 22:52:00,55.0,53.0,30.09,NNE,30,0.0,3.0,94,0.00,,,0.00,,2013-06-10 02:52:00,
2013-06-09 23:02:00,55.0,54.0,30.09,ENE,57,2.0,5.0,95,0.00,,,0.00,,2013-06-10 03:02:00,
2013-06-09 23:12:00,55.0,54.0,30.09,ENE,57,2.0,5.0,95,0.00,,,0.00,,2013-06-10 03:12:00,
2013-06-09 23:22:00,55.0,54.0,30.09,ENE,57,0.0,3.0,95,0.00,,,0.00,,2013-06-10 03:22:00,
2013-06-09 23:33:00,54.0,53.0,30.10,ENE,57,1.0,2.0,95,0.00,,,0.00,,2013-06-10 03:33:00,
2013-06-09 23:43:00,54.0,53.0,30.10,ENE,57,1.0,2.0,95,0.00,,,0.00,,2013-06-10 03:43:00,
2013-06-09 23:53:00,54.0,53.0,30.10,ENE,57,0.0,2.0,96,0.00,,,0.00,,2013-06-10 03:53:00,